TimePST,TemperatureF,Dew PointF,Humidity,Sea Level PressureIn,VisibilityMPH,Wind Direction,Wind SpeedMPH,Gust SpeedMPH,PrecipitationIn,Events,Conditions,WindDirDegrees,DateUTC
12:56 AM,53.1,53.1,100,29.87,3.0,North,4.6,-,0.09,Rain,Light Rain,360,2005-01-26 08:56:00
1:05 AM,53.6,53.6,100,29.86,3.0,North,4.6,-,0.01,Rain,Light Rain,350,2005-01-26 09:05:00
1:33 AM,53.6,53.6,100,29.87,3.0,North,5.8,-,0.01,Rain,Light Rain,10,2005-01-26 09:33:00
1:56 AM,53.1,53.1,100,29.87,3.0,NE,3.5,-,0.03,Rain,Light Rain,40,2005-01-26 09:56:00
2:56 AM,53.1,53.1,100,29.87,3.0,North,3.5,-,0.00,,Overcast,360,2005-01-26 10:56:00
4:56 AM,54.0,54.0,100,29.85,5.0,East,8.1,-,0.03,Rain,Light Rain,90,2005-01-26 12:56:00
5:56 AM,55.0,55.0,100,29.83,10.0,SE,5.8,-,0.00,,Overcast,130,2005-01-26 13:56:00
6:56 AM,55.0,55.0,100,29.83,5.0,SSE,9.2,19.6,0.04,Rain,Light Rain,150,2005-01-26 14:56:00
7:56 AM,55.0,55.0,100,29.84,5.0,ESE,10.4,-,0.04,Rain,Light Rain,120,2005-01-26 15:56:00
8:56 AM,55.9,55.9,100,29.86,5.0,SSE,12.7,-,0.07,Rain,Light Rain,160,2005-01-26 16:56:00
9:56 AM,57.9,55.9,93,29.89,8.0,SW,12.7,-,0.01,,Overcast,220,2005-01-26 17:56:00
10:16 AM,57.2,55.4,94,29.90,10.0,SW,12.7,-,0.00,Rain,Light Rain,220,2005-01-26 18:16:00
10:56 AM,57.9,55.9,93,29.91,10.0,WSW,12.7,-,0.00,,Mostly Cloudy,240,2005-01-26 18:56:00
11:56 AM,59.0,54.0,83,29.90,10.0,WSW,10.4,-,N/A,,Scattered Clouds,240,2005-01-26 19:56:00
12:56 PM,60.1,52.0,75,29.89,10.0,WSW,13.8,-,N/A,,Scattered Clouds,250,2005-01-26 20:56:00
1:56 PM,59.0,52.0,78,29.89,10.0,WSW,11.5,-,N/A,,Scattered Clouds,240,2005-01-26 21:56:00
2:56 PM,60.1,52.0,75,29.89,10.0,WSW,12.7,-,N/A,,Mostly Cloudy,250,2005-01-26 22:56:00
3:56 PM,57.0,54.0,89,29.91,9.0,WSW,11.5,-,0.01,,Mostly Cloudy,250,2005-01-26 23:56:00
4:21 PM,57.2,55.4,94,29.92,8.0,WNW,10.4,-,0.00,Rain,Light Rain,290,2005-01-27 00:21:00
4:56 PM,55.9,54.0,93,29.93,10.0,West,10.4,-,0.01,,Mostly Cloudy,280,2005-01-27 00:56:00
5:56 PM,55.9,54.0,93,29.94,10.0,SW,9.2,-,N/A,,Mostly Cloudy,230,2005-01-27 01:56:00
6:56 PM,55.0,54.0,96,29.97,10.0,SW,4.6,-,N/A,,Mostly Cloudy,220,2005-01-27 02:56:00
7:17 PM,55.4,53.6,94,29.98,10.0,SW,4.6,-,N/A,,Mostly Cloudy,230,2005-01-27 03:17:00
7:56 PM,55.0,53.1,93,29.99,10.0,Variable,3.5,-,N/A,,Mostly Cloudy,0,2005-01-27 03:56:00
8:56 PM,54.0,53.1,97,30.00,10.0,Calm,Calm,-,N/A,,Mostly Cloudy,0,2005-01-27 04:56:00
9:56 PM,53.1,53.1,100,30.01,10.0,Calm,Calm,-,N/A,,Scattered Clouds,0,2005-01-27 05:56:00
10:56 PM,52.0,52.0,100,30.01,10.0,Calm,Calm,-,N/A,,Mostly Cloudy,0,2005-01-27 06:56:00
11:56 PM,51.1,51.1,100,30.01,10.0,Variable,4.6,-,N/A,,Partly Cloudy,0,2005-01-27 07:56:00